Location: Kumla
(59.1265°N, 15.1401°E)
Time: 07:52:02
(UTC+01:00)

Vanguard 2 - Pass Details

Date: 10 December 2023
Orbit: 553 x 2919 km, 32.9° (Epoch: 25 February)

Event Time Altitude Azimuth Distance (km) Brightness Sun altitude
Rises 19:51:08 0° 220° (SW) 6,631 12.6 -34.7°
Reaches altitude 10° 19:56:59 10° 208° (SSW) 5,729 12.0 -35.4°
Enters shadow 20:08:28 22° 167° (SSE) 4,671 11.2 -36.8°
